| time (UTC) | temp F | wind direction | speed MPH | gust MPH | rain 1hr in | rain 24hr in | rain mn in | humidity % | barometer mb |
| 20260831112240 | 77 | 49 | 3.0 | 4.0 | 0.00 | 0.00 | 0.00 | 96 | 1016.8 |
| 20260831111724 | 77 | 55 | 2.0 | 3.0 | 0.00 | 0.00 | 0.00 | 95 | 1016.8 |
| 20260831111228 | 76 | 141 | 0.0 | 0.0 | 0.00 | 0.00 | 0.00 | 95 | 1016.7 |
| 20260831110713 | 76 | 141 | 0.0 | 0.0 | 0.00 | 0.00 | 0.00 | 95 | 1016.6 |
| 20260831110217 | 76 | 143 | 0.0 | 0.0 | 0.00 | 0.00 | 0.00 | 95 | 1016.6 |
| 20260831105723 | 76 | 143 | 0.0 | 0.0 | 0.00 | 0.00 | 0.00 | 95 | 1016.5 |
| 20260831105227 | 76 | 143 | 0.0 | 0.0 | 0.00 | 0.00 | 0.00 | 95 | 1016.5 |
| 20260831104713 | 76 | 143 | 0.0 | 0.0 | 0.00 | 0.00 | 0.00 | 95 | 1016.5 |
| 20260831104236 | 76 | 142 | 0.0 | 0.0 | 0.00 | 0.00 | 0.00 | 95 | 1016.5 |
| 20260831103718 | 76 | 143 | 0.0 | 0.0 | 0.00 | 0.00 | 0.00 | 95 | 1016.5 |
| 20260831103223 | 77 | 141 | 0.0 | 0.0 | 0.00 | 0.00 | 0.00 | 95 | 1016.4 |
| 20260831102726 | 76 | 144 | 0.0 | 0.0 | 0.00 | 0.00 | 0.00 | 95 | 1016.4 |
| 20260831102250 | 77 | 118 | 0.0 | 0.0 | 0.00 | 0.00 | 0.00 | 95 | 1016.4 |
| 20260831101714 | 76 | 144 | 0.0 | 0.0 | 0.00 | 0.00 | 0.00 | 95 | 1016.3 |
| 20260831101217 | 76 | 145 | 0.0 | 0.0 | 0.00 | 0.00 | 0.00 | 95 | 1016.2 |
| 20260831100712 | 77 | 145 | 0.0 | 0.0 | 0.00 | 0.00 | 0.00 | 95 | 1016.2 |
| 20260831100218 | 77 | 145 | 0.0 | 0.0 | 0.00 | 0.00 | 0.00 | 96 | 1016.2 |
| 20260831095723 | 76 | 145 | 0.0 | 0.0 | 0.00 | 0.00 | 0.00 | 96 | 1016.2 |
| 20260831094719 | 77 | 144 | 0.0 | 0.0 | 0.00 | 0.00 | 0.00 | 96 | 1016.4 |
| 20260831094244 | 76 | 143 | 0.0 | 0.0 | 0.00 | 0.00 | 0.00 | 95 | 1016.4 |
| 20260831093728 | 76 | 144 | 0.0 | 0.0 | 0.00 | 0.00 | 0.00 | 95 | 1016.3 |
| 20260831093213 | 76 | 144 | 0.0 | 0.0 | 0.00 | 0.00 | 0.00 | 95 | 1016.4 |
| 20260831092718 | 76 | 144 | 0.0 | 0.0 | 0.00 | 0.00 | 0.00 | 95 | 1016.4 |
| 20260831092223 | 76 | 144 | 0.0 | 0.0 | 0.00 | 0.00 | 0.00 | 95 | 1016.4 |
| 20260831091727 | 76 | 144 | 0.0 | 0.0 | 0.00 | 0.00 | 0.00 | 95 | 1016.4 |
| 20260831091216 | 76 | 144 | 0.0 | 0.0 | 0.00 | 0.00 | 0.00 | 96 | 1016.3 |
| 20260831090720 | 76 | 144 | 0.0 | 0.0 | 0.00 | 0.00 | 0.00 | 96 | 1016.2 |
| 20260831090226 | 76 | 144 | 0.0 | 0.0 | 0.00 | 0.00 | 0.00 | 95 | 1016.1 |
| 20260831085711 | 75 | 144 | 0.0 | 0.0 | 0.00 | 0.00 | 0.00 | 95 | 1016.1 |
| 20260831085216 | 75 | 144 | 0.0 | 0.0 | 0.00 | 0.00 | 0.00 | 95 | 1016.1 |
| 20260831084721 | 75 | 144 | 0.0 | 0.0 | 0.00 | 0.00 | 0.00 | 95 | 1016.1 |
| 20260831084226 | 75 | 144 | 0.0 | 0.0 | 0.00 | 0.00 | 0.00 | 95 | 1016.1 |
| 20260831083711 | 75 | 144 | 0.0 | 0.0 | 0.00 | 0.00 | 0.00 | 95 | 1016.2 |
| 20260831083216 | 75 | 144 | 0.0 | 0.0 | 0.00 | 0.00 | 0.00 | 95 | 1016.2 |
| 20260831082720 | 75 | 144 | 0.0 | 0.0 | 0.00 | 0.00 | 0.00 | 95 | 1016.2 |
| 20260831082245 | 76 | 144 | 0.0 | 0.0 | 0.00 | 0.00 | 0.00 | 95 | 1016.3 |
| 20260831081713 | 76 | 144 | 0.0 | 0.0 | 0.00 | 0.00 | 0.00 | 95 | 1016.3 |
| 20260831081218 | 76 | 144 | 0.0 | 0.0 | 0.00 | 0.00 | 0.00 | 95 | 1016.5 |
| 20260831080714 | 76 | 144 | 0.0 | 0.0 | 0.00 | 0.00 | 0.00 | 95 | 1016.5 |
| 20260831080239 | 76 | 144 | 0.0 | 0.0 | 0.00 | 0.00 | 0.00 | 95 | 1016.5 |
| 20260831075723 | 76 | 144 | 0.0 | 0.0 | 0.00 | 0.00 | 0.00 | 95 | 1016.5 |
| 20260831075228 | 75 | 144 | 0.0 | 0.0 | 0.00 | 0.00 | 0.00 | 95 | 1016.4 |
| 20260831074713 | 75 | 144 | 0.0 | 0.0 | 0.00 | 0.00 | 0.00 | 95 | 1016.4 |
| 20260831074236 | 75 | 144 | 0.0 | 0.0 | 0.00 | 0.00 | 0.00 | 95 | 1016.4 |
| 20260831073722 | 76 | 144 | 0.0 | 0.0 | 0.00 | 0.00 | 0.00 | 95 | 1016.4 |
| 20260831073228 | 75 | 144 | 0.0 | 0.0 | 0.00 | 0.00 | 0.00 | 95 | 1016.4 |
| 20260831072715 | 76 | 144 | 0.0 | 0.0 | 0.00 | 0.00 | 0.00 | 94 | 1016.5 |
| 20260831072222 | 76 | 144 | 0.0 | 0.0 | 0.00 | 0.00 | 0.00 | 95 | 1016.6 |
| 20260831071711 | 76 | 144 | 0.0 | 0.0 | 0.00 | 0.00 | 0.00 | 95 | 1016.7 |
| 20260831071216 | 76 | 144 | 0.0 | 0.0 | 0.00 | 0.00 | 0.00 | 95 | 1016.7 |
| 20260831070721 | 76 | 144 | 0.0 | 0.0 | 0.00 | 0.00 | 0.00 | 95 | 1016.8 |
| 20260831070246 | 76 | 144 | 0.0 | 0.0 | 0.00 | 0.00 | 0.00 | 95 | 1016.8 |
| 20260831065730 | 76 | 144 | 0.0 | 1.0 | 0.00 | 0.00 | 0.00 | 95 | 1016.9 |
| 20260831065215 | 76 | 144 | 0.0 | 1.0 | 0.00 | 0.00 | 0.00 | 94 | 1016.9 |
| 20260831064720 | 76 | 144 | 1.0 | 1.0 | 0.00 | 0.00 | 0.00 | 95 | 1016.8 |
| 20260831064225 | 76 | 144 | 1.0 | 1.0 | 0.00 | 0.00 | 0.00 | 95 | 1016.8 |
| 20260831063730 | 76 | 144 | 0.0 | 1.0 | 0.00 | 0.00 | 0.00 | 95 | 1016.9 |
| 20260831063235 | 76 | 144 | 1.0 | 2.0 | 0.00 | 0.00 | 0.00 | 94 | 1016.9 |
| 20260831062719 | 76 | 144 | 1.0 | 2.0 | 0.00 | 0.00 | 0.00 | 94 | 1017.0 |
| 20260831062224 | 76 | 144 | 0.0 | 0.0 | 0.00 | 0.00 | 0.00 | 94 | 1017.1 |
| 20260831061720 | 76 | 144 | 0.0 | 0.0 | 0.00 | 0.00 | 0.00 | 94 | 1017.0 |
| 20260831061229 | 76 | 144 | 0.0 | 0.0 | 0.00 | 0.00 | 0.00 | 94 | 1017.0 |
| 20260831060746 | 76 | 144 | 0.0 | 0.0 | 0.00 | 0.00 | 0.00 | 94 | 1017.0 |
| 20260831060250 | 76 | 144 | 0.0 | 0.0 | 0.00 | 0.00 | 0.00 | 94 | 1017.1 |
| 20260831055713 | 76 | 144 | 0.0 | 0.0 | 0.00 | 0.00 | 0.00 | 94 | 1017.1 |
| 20260831055218 | 76 | 141 | 0.0 | 0.0 | 0.00 | 0.00 | 0.00 | 94 | 1017.1 |
| 20260831054723 | 77 | 141 | 0.0 | 0.0 | 0.00 | 0.00 | 0.00 | 93 | 1017.1 |
| 20260831054228 | 77 | 141 | 0.0 | 0.0 | 0.00 | 0.00 | 0.00 | 93 | 1017.1 |
| 20260831053711 | 77 | 141 | 0.0 | 0.0 | 0.00 | 0.00 | 0.00 | 93 | 1017.1 |
| 20260831053216 | 77 | 141 | 0.0 | 0.0 | 0.00 | 0.00 | 0.00 | 93 | 1017.1 |
| 20260831052720 | 78 | 141 | 0.0 | 0.0 | 0.00 | 0.00 | 0.00 | 93 | 1017.2 |
| 20260831052225 | 78 | 141 | 0.0 | 0.0 | 0.00 | 0.00 | 0.00 | 93 | 1017.2 |
| 20260831051730 | 78 | 141 | 0.0 | 1.0 | 0.00 | 0.00 | 0.00 | 93 | 1017.1 |
| 20260831051219 | 79 | 136 | 0.0 | 3.0 | 0.00 | 0.00 | 0.00 | 93 | 1017.1 |
| 20260831050744 | 79 | 136 | 0.0 | 3.0 | 0.00 | 0.00 | 0.00 | 93 | 1017.2 |
| 20260831050228 | 79 | 104 | 1.0 | 3.0 | 0.00 | 0.00 | 0.00 | 93 | 1017.2 |
| 20260831045733 | 79 | 74 | 2.0 | 3.0 | 0.00 | 0.00 | 0.00 | 93 | 1017.2 |
| 20260831045217 | 79 | 68 | 2.0 | 4.0 | 0.00 | 0.00 | 0.00 | 93 | 1017.2 |
| 20260831044723 | 79 | 50 | 3.0 | 4.0 | 0.00 | 0.00 | 0.00 | 93 | 1017.2 |
| 20260831044228 | 79 | 44 | 3.0 | 4.0 | 0.00 | 0.00 | 0.00 | 93 | 1017.1 |
| 20260831043733 | 79 | 39 | 3.0 | 4.0 | 0.00 | 0.00 | 0.00 | 93 | 1017.1 |
| 20260831043217 | 79 | 37 | 2.0 | 5.0 | 0.00 | 0.00 | 0.00 | 93 | 1017.1 |
| 20260831042742 | 79 | 43 | 3.0 | 5.0 | 0.00 | 0.00 | 0.00 | 92 | 1017.1 |
| 20260831042228 | 80 | 40 | 2.0 | 3.0 | 0.00 | 0.00 | 0.00 | 93 | 1017.1 |
| 20260831041714 | 80 | 54 | 2.0 | 3.0 | 0.00 | 0.00 | 0.00 | 93 | 1017.2 |
| 20260831041241 | 80 | 51 | 2.0 | 3.0 | 0.00 | 0.00 | 0.00 | 93 | 1017.2 |
| 20260831040716 | 80 | 49 | 1.0 | 2.0 | 0.00 | 0.00 | 0.00 | 93 | 1017.1 |
| 20260831040237 | 80 | 66 | 1.0 | 3.0 | 0.00 | 0.00 | 0.00 | 93 | 1017.1 |
| 20260831035719 | 79 | 53 | 1.0 | 3.0 | 0.00 | 0.00 | 0.00 | 92 | 1017.1 |
| 20260831035244 | 79 | 55 | 2.0 | 4.0 | 0.00 | 0.00 | 0.00 | 92 | 1017.1 |
| 20260831034727 | 79 | 58 | 3.0 | 4.0 | 0.00 | 0.00 | 0.00 | 92 | 1017.2 |
| 20260831034213 | 79 | 67 | 3.0 | 5.0 | 0.00 | 0.00 | 0.00 | 92 | 1017.3 |
| 20260831033737 | 79 | 52 | 3.0 | 6.0 | 0.00 | 0.00 | 0.00 | 92 | 1017.2 |
| 20260831033241 | 79 | 44 | 5.0 | 6.0 | 0.00 | 0.00 | 0.00 | 92 | 1017.2 |
| 20260831032725 | 80 | 41 | 5.0 | 6.0 | 0.00 | 0.00 | 0.00 | 92 | 1017.2 |
| 20260831032214 | 80 | 44 | 5.0 | 6.0 | 0.00 | 0.00 | 0.00 | 92 | 1017.2 |
| 20260831031718 | 80 | 47 | 4.0 | 5.0 | 0.00 | 0.00 | 0.00 | 91 | 1017.3 |
| 20260831031223 | 80 | 47 | 4.0 | 6.0 | 0.00 | 0.00 | 0.00 | 91 | 1017.3 |
| 20260831030728 | 81 | 49 | 4.0 | 5.0 | 0.00 | 0.00 | 0.00 | 91 | 1017.4 |
| 20260831030212 | 81 | 46 | 4.0 | 6.0 | 0.00 | 0.00 | 0.00 | 91 | 1017.4 |
| 20260831025717 | 81 | 59 | 4.0 | 6.0 | 0.00 | 0.00 | 0.00 | 91 | 1017.4 |
| 20260831025221 | 81 | 61 | 4.0 | 5.0 | 0.00 | 0.00 | 0.00 | 91 | 1017.4 |
| 20260831024726 | 81 | 51 | 4.0 | 5.0 | 0.00 | 0.00 | 0.00 | 90 | 1017.4 |
| 20260831024211 | 81 | 62 | 4.0 | 5.0 | 0.00 | 0.00 | 0.00 | 90 | 1017.4 |
| 20260831023716 | 81 | 54 | 4.0 | 5.0 | 0.00 | 0.00 | 0.00 | 90 | 1017.5 |
| 20260831023221 | 81 | 75 | 4.0 | 5.0 | 0.00 | 0.00 | 0.00 | 89 | 1017.5 |
| 20260831022729 | 81 | 53 | 4.0 | 5.0 | 0.00 | 0.00 | 0.00 | 90 | 1017.5 |
| 20260831022213 | 81 | 34 | 4.0 | 5.0 | 0.00 | 0.00 | 0.00 | 89 | 1017.5 |
| 20260831021718 | 81 | 35 | 4.0 | 5.0 | 0.00 | 0.00 | 0.00 | 89 | 1017.5 |
| 20260831021222 | 81 | 49 | 3.0 | 4.0 | 0.00 | 0.00 | 0.00 | 89 | 1017.6 |
| 20260831020739 | 81 | 37 | 4.0 | 5.0 | 0.00 | 0.00 | 0.00 | 88 | 1017.5 |
| 20260831020223 | 81 | 30 | 4.0 | 5.0 | 0.00 | 0.00 | 0.00 | 88 | 1017.7 |
| 20260831015728 | 81 | 32 | 4.0 | 5.0 | 0.00 | 0.00 | 0.00 | 88 | 1017.7 |
| 20260831015232 | 81 | 37 | 4.0 | 5.0 | 0.00 | 0.00 | 0.00 | 88 | 1017.7 |
| 20260831014717 | 82 | 27 | 3.0 | 4.0 | 0.00 | 0.00 | 0.00 | 88 | 1017.8 |
| 20260831014221 | 82 | 49 | 3.0 | 4.0 | 0.00 | 0.00 | 0.00 | 87 | 1017.9 |
| 20260831013726 | 82 | 74 | 2.0 | 3.0 | 0.00 | 0.00 | 0.00 | 87 | 1017.9 |
| 20260831013230 | 82 | 71 | 1.0 | 3.0 | 0.00 | 0.00 | 0.00 | 88 | 1017.8 |
| 20260831012719 | 82 | 61 | 3.0 | 5.0 | 0.00 | 0.00 | 0.00 | 87 | 1017.7 |
| 20260831012224 | 82 | 61 | 3.0 | 5.0 | 0.00 | 0.00 | 0.00 | 87 | 1017.7 |
| 20260831011729 | 82 | 59 | 3.0 | 5.0 | 0.00 | 0.00 | 0.00 | 88 | 1017.6 |
| 20260831011213 | 82 | 58 | 3.0 | 5.0 | 0.00 | 0.00 | 0.00 | 86 | 1017.6 |
| 20260831010718 | 82 | 55 | 3.0 | 5.0 | 0.00 | 0.00 | 0.00 | 87 | 1017.6 |
| 20260831010223 | 82 | 57 | 3.0 | 4.0 | 0.00 | 0.00 | 0.00 | 87 | 1017.6 |
| 20260831005728 | 82 | 61 | 3.0 | 3.0 | 0.00 | 0.00 | 0.00 | 87 | 1017.7 |
| 20260831005213 | 82 | 66 | 2.0 | 4.0 | 0.00 | 0.00 | 0.00 | 87 | 1017.7 |
| 20260831004718 | 82 | 56 | 2.0 | 5.0 | 0.00 | 0.00 | 0.00 | 87 | 1017.6 |
| 20260831004223 | 82 | 53 | 3.0 | 5.0 | 0.00 | 0.00 | 0.00 | 87 | 1017.6 |
| 20260831003739 | 82 | 62 | 4.0 | 6.0 | 0.00 | 0.00 | 0.00 | 87 | 1017.5 |
| 20260831003223 | 82 | 50 | 5.0 | 7.0 | 0.00 | 0.00 | 0.00 | 87 | 1017.4 |
| 20260831002712 | 82 | 44 | 5.0 | 7.0 | 0.00 | 0.00 | 0.00 | 87 | 1017.3 |
| 20260831002217 | 82 | 52 | 5.0 | 7.0 | 0.00 | 0.00 | 0.00 | 87 | 1017.1 |
| 20260831001722 | 82 | 54 | 5.0 | 8.0 | 0.00 | 0.00 | 0.00 | 87 | 1017.0 |
| 20260831001226 | 82 | 53 | 6.0 | 7.0 | 0.00 | 0.00 | 0.00 | 86 | 1017.1 |
| 20260831000723 | 83 | 56 | 6.0 | 7.0 | 0.00 | 0.00 | 0.00 | 86 | 1017.0 |
| 20260831000228 | 83 | 51 | 5.0 | 7.0 | 0.00 | 0.00 | 0.00 | 86 | 1017.0 |
| 20260830235732 | 83 | 51 | 6.0 | 7.0 | 0.00 | 0.00 | 0.00 | 86 | 1017.0 |
| 20260830235216 | 83 | 53 | 5.0 | 7.0 | 0.00 | 0.00 | 0.00 | 86 | 1017.1 |
| 20260830234721 | 83 | 49 | 5.0 | 8.0 | 0.00 | 0.00 | 0.00 | 86 | 1017.0 |
| 20260830234226 | 83 | 47 | 6.0 | 8.0 | 0.00 | 0.00 | 0.00 | 85 | 1017.0 |
| 20260830233711 | 83 | 71 | 5.0 | 8.0 | 0.00 | 0.00 | 0.00 | 86 | 1017.0 |
| 20260830233220 | 83 | 72 | 6.0 | 9.0 | 0.00 | 0.00 | 0.00 | 86 | 1017.0 |
| 20260830232724 | 83 | 72 | 7.0 | 10.0 | 0.00 | 0.00 | 0.00 | 86 | 1016.9 |
| 20260830232229 | 83 | 59 | 8.0 | 11.0 | 0.00 | 0.00 | 0.00 | 85 | 1016.9 |
| 20260830231712 | 83 | 60 | 8.0 | 11.0 | 0.00 | 0.00 | 0.00 | 85 | 1016.8 |
| 20260830231217 | 83 | 51 | 8.0 | 11.0 | 0.00 | 0.00 | 0.00 | 85 | 1016.8 |
| 20260830230722 | 84 | 72 | 9.0 | 12.0 | 0.00 | 0.00 | 0.00 | 84 | 1016.8 |
| 20260830230227 | 84 | 57 | 9.0 | 12.0 | 0.00 | 0.00 | 0.00 | 84 | 1016.8 |
| 20260830225751 | 84 | 60 | 7.0 | 10.0 | 0.00 | 0.00 | 0.00 | 83 | 1016.9 |
| 20260830225235 | 84 | 62 | 6.0 | 9.0 | 0.00 | 0.00 | 0.00 | 84 | 1016.9 |
| 20260830224719 | 84 | 44 | 6.0 | 12.0 | 0.00 | 0.00 | 0.00 | 82 | 1016.8 |
| 20260830224224 | 84 | 48 | 9.0 | 12.0 | 0.00 | 0.00 | 0.00 | 81 | 1016.8 |
| 20260830223729 | 85 | 54 | 8.0 | 13.0 | 0.00 | 0.00 | 0.00 | 82 | 1016.7 |
| 20260830223218 | 85 | 59 | 8.0 | 13.0 | 0.00 | 0.00 | 0.00 | 80 | 1016.6 |
| 20260830222723 | 85 | 60 | 10.0 | 13.0 | 0.00 | 0.00 | 0.00 | 80 | 1016.5 |
| 20260830222228 | 85 | 61 | 11.0 | 13.0 | 0.00 | 0.00 | 0.00 | 79 | 1016.6 |
| 20260830221712 | 85 | 69 | 11.0 | 15.0 | 0.00 | 0.00 | 0.00 | 79 | 1016.5 |
| 20260830221216 | 85 | 74 | 12.0 | 16.0 | 0.00 | 0.00 | 0.00 | 79 | 1016.5 |
| 20260830220712 | 85 | 74 | 13.0 | 15.0 | 0.00 | 0.00 | 0.00 | 79 | 1016.4 |
| 20260830220217 | 86 | 63 | 11.0 | 15.0 | 0.00 | 0.00 | 0.00 | 79 | 1016.4 |
| 20260830215720 | 86 | 71 | 11.0 | 15.0 | 0.00 | 0.00 | 0.00 | 79 | 1016.3 |
| 20260830215245 | 86 | 80 | 11.0 | 15.0 | 0.00 | 0.00 | 0.00 | 78 | 1016.3 |
| 20260830214727 | 86 | 68 | 10.0 | 14.0 | 0.00 | 0.00 | 0.00 | 76 | 1016.2 |
| 20260830214212 | 86 | 68 | 10.0 | 12.0 | 0.00 | 0.00 | 0.00 | 76 | 1016.1 |
| 20260830213717 | 86 | 68 | 8.0 | 9.0 | 0.00 | 0.00 | 0.00 | 74 | 1016.1 |
| 20260830213226 | 87 | 77 | 7.0 | 10.0 | 0.00 | 0.00 | 0.00 | 74 | 1016.2 |
| 20260830212751 | 87 | 77 | 8.0 | 11.0 | 0.00 | 0.00 | 0.00 | 74 | 1016.2 |
| 20260830212215 | 87 | 80 | 8.0 | 12.0 | 0.00 | 0.00 | 0.00 | 73 | 1016.2 |
| 20260830211740 | 87 | 85 | 10.0 | 12.0 | 0.00 | 0.00 | 0.00 | 71 | 1016.2 |
| 20260830211224 | 87 | 75 | 9.0 | 13.0 | 0.00 | 0.00 | 0.00 | 71 | 1016.2 |
| 20260830210729 | 87 | 84 | 10.0 | 13.0 | 0.00 | 0.00 | 0.00 | 71 | 1016.2 |
| 20260830210213 | 87 | 71 | 9.0 | 12.0 | 0.00 | 0.00 | 0.00 | 73 | 1016.2 |
| 20260830205738 | 87 | 77 | 9.0 | 13.0 | 0.00 | 0.00 | 0.00 | 73 | 1016.2 |
| 20260830205222 | 87 | 82 | 11.0 | 13.0 | 0.00 | 0.00 | 0.00 | 72 | 1016.3 |
| 20260830204726 | 88 | 75 | 10.0 | 13.0 | 0.00 | 0.00 | 0.00 | 70 | 1016.3 |
| 20260830204211 | 88 | 64 | 10.0 | 14.0 | 0.00 | 0.00 | 0.00 | 68 | 1016.3 |
| 20260830203717 | 88 | 73 | 11.0 | 14.0 | 0.00 | 0.00 | 0.00 | 68 | 1016.2 |
| 20260830203222 | 88 | 76 | 11.0 | 15.0 | 0.00 | 0.00 | 0.00 | 69 | 1016.2 |
| 20260830202730 | 88 | 69 | 12.0 | 15.0 | 0.00 | 0.00 | 0.00 | 70 | 1016.2 |
| 20260830202215 | 88 | 89 | 10.0 | 15.0 | 0.00 | 0.00 | 0.00 | 70 | 1016.3 |
| 20260830201719 | 88 | 75 | 8.0 | 13.0 | 0.00 | 0.00 | 0.00 | 68 | 1016.4 |
| 20260830201224 | 88 | 63 | 10.0 | 14.0 | 0.00 | 0.00 | 0.00 | 68 | 1016.6 |
| 20260830200720 | 88 | 75 | 10.0 | 14.0 | 0.00 | 0.00 | 0.00 | 70 | 1016.6 |
| 20260830200226 | 88 | 68 | 10.0 | 15.0 | 0.00 | 0.00 | 0.00 | 71 | 1016.6 |
| 20260830195729 | 88 | 76 | 12.0 | 15.0 | 0.00 | 0.00 | 0.00 | 69 | 1016.7 |
| 20260830195215 | 88 | 83 | 11.0 | 13.0 | 0.00 | 0.00 | 0.00 | 71 | 1016.7 |
| 20260830194739 | 87 | 51 | 8.0 | 10.0 | 0.00 | 0.00 | 0.00 | 72 | 1016.8 |
| 20260830194223 | 87 | 26 | 5.0 | 7.0 | 0.00 | 0.00 | 0.00 | 76 | 1016.8 |
| 20260830193728 | 87 | 345 | 4.0 | 6.0 | 0.00 | 0.00 | 0.00 | 77 | 1016.9 |
| 20260830193217 | 86 | 350 | 3.0 | 8.0 | 0.00 | 0.00 | 0.00 | 78 | 1016.9 |
| 20260830192741 | 86 | 357 | 4.0 | 8.0 | 0.00 | 0.00 | 0.00 | 77 | 1017.1 |
| 20260830192245 | 86 | 8 | 5.0 | 8.0 | 0.00 | 0.00 | 0.00 | 77 | 1017.1 |
| 20260830191728 | 86 | 57 | 6.0 | 12.0 | 0.00 | 0.00 | 0.00 | 77 | 1017.1 |
| 20260830191213 | 86 | 359 | 7.0 | 13.0 | 0.00 | 0.00 | 0.00 | 78 | 1017.1 |
| 20260830190718 | 86 | 56 | 9.0 | 15.0 | 0.00 | 0.00 | 0.00 | 75 | 1017.2 |
| 20260830190224 | 86 | 70 | 12.0 | 14.0 | 0.00 | 0.00 | 0.00 | 76 | 1017.1 |
| 20260830185728 | 86 | 57 | 6.0 | 9.0 | 0.00 | 0.00 | 0.00 | 76 | 1017.2 |
| 20260830185213 | 86 | 29 | 3.0 | 12.0 | 0.00 | 0.00 | 0.00 | 76 | 1017.3 |
| 20260830184738 | 86 | 333 | 8.0 | 12.0 | 0.00 | 0.00 | 0.00 | 77 | 1017.2 |
| 20260830184241 | 86 | 10 | 6.0 | 9.0 | 0.00 | 0.00 | 0.00 | 78 | 1017.2 |
| 20260830183745 | 86 | 338 | 6.0 | 9.0 | 0.00 | 0.00 | 0.00 | 78 | 1017.2 |
| 20260830183249 | 86 | 344 | 5.0 | 11.0 | 0.00 | 0.00 | 0.00 | 78 | 1017.3 |
| 20260830182713 | 86 | 4 | 9.0 | 11.0 | 0.00 | 0.00 | 0.00 | 79 | 1017.2 |
| 20260830182238 | 86 | 332 | 5.0 | 9.0 | 0.00 | 0.00 | 0.00 | 76 | 1017.2 |
| 20260830181722 | 86 | 345 | 6.0 | 8.0 | 0.00 | 0.00 | 0.00 | 79 | 1017.2 |
| 20260830181211 | 86 | 324 | 6.0 | 10.0 | 0.00 | 0.00 | 0.00 | 77 | 1017.4 |
| 20260830180727 | 86 | 341 | 6.0 | 12.0 | 0.00 | 0.00 | 0.00 | 77 | 1017.4 |
| 20260830180211 | 85 | 334 | 7.0 | 12.0 | 0.00 | 0.00 | 0.00 | 78 | 1017.6 |
| 20260830175717 | 86 | 7 | 9.0 | 13.0 | 0.00 | 0.00 | 0.00 | 77 | 1017.6 |
| 20260830175221 | 86 | 20 | 9.0 | 14.0 | 0.00 | 0.00 | 0.00 | 78 | 1017.7 |
| 20260830174728 | 85 | 316 | 10.0 | 14.0 | 0.00 | 0.00 | 0.00 | 81 | 1017.9 |
| 20260830174213 | 87 | 330 | 9.0 | 14.0 | 0.00 | 0.00 | 0.00 | 78 | 1018.0 |
| 20260830173718 | 88 | 34 | 5.0 | 7.0 | 0.00 | 0.00 | 0.00 | 71 | 1018.1 |
| 20260830173225 | 87 | 49 | 4.0 | 10.0 | 0.00 | 0.00 | 0.00 | 72 | 1018.1 |
| 20260830172730 | 87 | 62 | 4.0 | 10.0 | 0.00 | 0.00 | 0.00 | 74 | 1018.1 |
| 20260830172217 | 87 | 63 | 5.0 | 9.0 | 0.00 | 0.00 | 0.00 | 73 | 1018.1 |
| 20260830171726 | 87 | 56 | 5.0 | 7.0 | 0.00 | 0.00 | 0.00 | 74 | 1018.2 |
| 20260830171251 | 87 | 61 | 4.0 | 5.0 | 0.00 | 0.00 | 0.00 | 75 | 1018.3 |
| 20260830170717 | 87 | 87 | 2.0 | 4.0 | 0.00 | 0.00 | 0.00 | 75 | 1018.3 |
| 20260830170223 | 87 | 95 | 3.0 | 5.0 | 0.00 | 0.00 | 0.00 | 75 | 1018.3 |
| 20260830165727 | 87 | 82 | 2.0 | 6.0 | 0.00 | 0.00 | 0.00 | 73 | 1018.4 |
| 20260830165211 | 87 | 88 | 4.0 | 7.0 | 0.00 | 0.00 | 0.00 | 74 | 1018.4 |
| 20260830164716 | 87 | 99 | 4.0 | 7.0 | 0.00 | 0.00 | 0.00 | 73 | 1018.4 |
| 20260830164240 | 87 | 76 | 1.0 | 3.0 | 0.00 | 0.00 | 0.00 | 72 | 1018.4 |
| 20260830163724 | 87 | 106 | 1.0 | 2.0 | 0.00 | 0.00 | 0.00 | 73 | 1018.4 |
| 20260830163230 | 87 | 84 | 1.0 | 2.0 | 0.00 | 0.00 | 0.00 | 74 | 1018.4 |
| 20260830162714 | 87 | 68 | 1.0 | 3.0 | 0.00 | 0.00 | 0.00 | 74 | 1018.4 |
| 20260830162218 | 87 | 62 | 2.0 | 4.0 | 0.00 | 0.00 | 0.00 | 75 | 1018.5 |
| 20260830161727 | 87 | 34 | 2.0 | 4.0 | 0.00 | 0.00 | 0.00 | 74 | 1018.5 |
| 20260830161212 | 87 | 69 | 2.0 | 5.0 | 0.00 | 0.00 | 0.00 | 75 | 1018.5 |
| 20260830160729 | 86 | 77 | 2.0 | 5.0 | 0.00 | 0.00 | 0.00 | 75 | 1018.5 |
| 20260830160222 | 86 | 59 | 1.0 | 3.0 | 0.00 | 0.00 | 0.00 | 75 | 1018.5 |
| 20260830155726 | 86 | 67 | 1.0 | 3.0 | 0.00 | 0.00 | 0.00 | 75 | 1018.6 |
| 20260830155250 | 85 | 30 | 1.0 | 4.0 | 0.00 | 0.00 | 0.00 | 76 | 1018.6 |
| 20260830154714 | 85 | 9 | 2.0 | 5.0 | 0.00 | 0.00 | 0.00 | 77 | 1018.7 |
| 20260830154219 | 85 | 53 | 2.0 | 4.0 | 0.00 | 0.00 | 0.00 | 78 | 1018.7 |
| 20260830153744 | 85 | 37 | 1.0 | 2.0 | 0.00 | 0.00 | 0.00 | 78 | 1018.8 |
| 20260830153229 | 84 | 40 | 0.0 | 3.0 | 0.00 | 0.00 | 0.00 | 78 | 1018.8 |
| 20260830152733 | 84 | 40 | 1.0 | 3.0 | 0.00 | 0.00 | 0.00 | 78 | 1018.9 |
| 20260830152246 | 84 | 41 | 2.0 | 2.0 | 0.00 | 0.00 | 0.00 | 78 | 1018.9 |
| 20260830151750 | 84 | 61 | 1.0 | 3.0 | 0.00 | 0.00 | 0.00 | 78 | 1019.0 |
| 20260830151214 | 84 | 65 | 3.0 | 5.0 | 0.00 | 0.00 | 0.00 | 78 | 1019.0 |
| 20260830150718 | 84 | 75 | 3.0 | 5.0 | 0.00 | 0.00 | 0.00 | 78 | 1019.1 |
| 20260830150228 | 84 | 54 | 4.0 | 5.0 | 0.00 | 0.00 | 0.00 | 79 | 1019.1 |
| 20260830145711 | 84 | 61 | 3.0 | 6.0 | 0.00 | 0.00 | 0.00 | 79 | 1019.0 |
| 20260830145217 | 84 | 52 | 4.0 | 7.0 | 0.00 | 0.00 | 0.00 | 80 | 1019.0 |
| 20260830144741 | 84 | 64 | 5.0 | 7.0 | 0.00 | 0.00 | 0.00 | 80 | 1019.1 |
| 20260830144225 | 84 | 61 | 3.0 | 4.0 | 0.00 | 0.00 | 0.00 | 81 | 1019.1 |
| 20260830143729 | 83 | 305 | 1.0 | 4.0 | 0.00 | 0.00 | 0.00 | 82 | 1019.2 |
| 20260830143214 | 84 | 336 | 2.0 | 4.0 | 0.00 | 0.00 | 0.00 | 82 | 1019.3 |
| 20260830142738 | 84 | 16 | 2.0 | 3.0 | 0.00 | 0.00 | 0.00 | 82 | 1019.3 |
| 20260830142221 | 83 | 23 | 0.0 | 2.0 | 0.00 | 0.00 | 0.00 | 84 | 1019.3 |
| 20260830141726 | 83 | 4 | 1.0 | 2.0 | 0.00 | 0.00 | 0.00 | 85 | 1019.2 |
| 20260830141211 | 83 | 348 | 1.0 | 3.0 | 0.00 | 0.00 | 0.00 | 85 | 1019.1 |
| 20260830140728 | 82 | 11 | 1.0 | 3.0 | 0.00 | 0.00 | 0.00 | 87 | 1019.1 |
| 20260830140217 | 82 | 357 | 1.0 | 4.0 | 0.00 | 0.00 | 0.00 | 87 | 1019.2 |
| 20260830135721 | 82 | 1 | 2.0 | 4.0 | 0.00 | 0.00 | 0.00 | 88 | 1019.1 |
| 20260830135226 | 82 | 331 | 2.0 | 4.0 | 0.00 | 0.00 | 0.00 | 88 | 1019.1 |
| 20260830134750 | 82 | 325 | 2.0 | 4.0 | 0.00 | 0.00 | 0.00 | 88 | 1019.2 |
| 20260830134215 | 82 | 339 | 2.0 | 3.0 | 0.00 | 0.00 | 0.00 | 89 | 1019.2 |
| 20260830133719 | 82 | 332 | 2.0 | 3.0 | 0.00 | 0.00 | 0.00 | 89 | 1019.2 |
| 20260830133224 | 82 | 327 | 2.0 | 4.0 | 0.00 | 0.00 | 0.00 | 89 | 1019.2 |
| 20260830132749 | 81 | 345 | 3.0 | 4.0 | 0.00 | 0.00 | 0.00 | 89 | 1019.2 |
| 20260830132214 | 81 | 354 | 3.0 | 4.0 | 0.00 | 0.00 | 0.00 | 89 | 1019.2 |
| 20260830131718 | 81 | 14 | 2.0 | 4.0 | 0.00 | 0.00 | 0.00 | 89 | 1019.2 |
| 20260830131223 | 81 | 6 | 2.0 | 4.0 | 0.00 | 0.00 | 0.00 | 90 | 1019.1 |
| 20260830130729 | 81 | 348 | 2.0 | 5.0 | 0.00 | 0.00 | 0.00 | 90 | 1019.1 |
| 20260830130217 | 81 | 15 | 4.0 | 6.0 | 0.00 | 0.00 | 0.00 | 90 | 1019.1 |
| 20260830125741 | 81 | 16 | 4.0 | 6.0 | 0.00 | 0.00 | 0.00 | 91 | 1019.0 |
| 20260830125225 | 81 | 354 | 2.0 | 3.0 | 0.00 | 0.00 | 0.00 | 91 | 1018.9 |
| 20260830124729 | 80 | 6 | 2.0 | 3.0 | 0.00 | 0.00 | 0.00 | 90 | 1018.9 |
| 20260830124214 | 81 | 22 | 2.0 | 2.0 | 0.00 | 0.00 | 0.00 | 92 | 1018.8 |
| 20260830123718 | 80 | 7 | 1.0 | 3.0 | 0.00 | 0.00 | 0.00 | 93 | 1018.8 |
| 20260830123224 | 79 | 288 | 2.0 | 3.0 | 0.00 | 0.00 | 0.00 | 93 | 1018.8 |
| 20260830122727 | 79 | 262 | 1.0 | 2.0 | 0.00 | 0.00 | 0.00 | 93 | 1018.7 |
| 20260830122212 | 78 | 248 | 1.0 | 3.0 | 0.00 | 0.00 | 0.00 | 93 | 1018.7 |
| 20260830121737 | 78 | 250 | 2.0 | 3.0 | 0.00 | 0.00 | 0.00 | 93 | 1018.6 |
| 20260830121221 | 78 | 258 | 2.0 | 2.0 | 0.00 | 0.00 | 0.00 | 93 | 1018.5 |
| 20260830120718 | 77 | 150 | 0.0 | 0.0 | 0.00 | 0.00 | 0.00 | 93 | 1018.4 |
| 20260830120224 | 77 | 150 | 0.0 | 1.0 | 0.00 | 0.00 | 0.00 | 94 | 1018.3 |
| 20260830115712 | 76 | 150 | 1.0 | 1.0 | 0.00 | 0.00 | 0.00 | 94 | 1018.3 |
| 20260830115216 | 76 | 149 | 0.0 | 1.0 | 0.00 | 0.00 | 0.00 | 93 | 1018.2 |
| 20260830114721 | 76 | 149 | 1.0 | 1.0 | 0.00 | 0.00 | 0.00 | 94 | 1018.2 |
| 20260830114225 | 75 | 149 | 1.0 | 1.0 | 0.00 | 0.00 | 0.00 | 94 | 1018.1 |
| 20260830113750 | 75 | 149 | 1.0 | 1.0 | 0.00 | 0.00 | 0.00 | 94 | 1018.0 |
| 20260830113215 | 75 | 149 | 1.0 | 1.0 | 0.00 | 0.00 | 0.00 | 94 | 1017.9 |
| 20260830112719 | 75 | 149 | 1.0 | 1.0 | 0.00 | 0.00 | 0.00 | 94 | 1017.9 |